Weather History for Cincinnati, OH

Change the Weather History Date:

Thursday, June 19, 2014

  Actual Average Record
Temperature  
Mean Temperature 80 °F -  
Max Temperature 90 °F 83 °F 93 °F (1975)
Min Temperature 69 °F 63 °F 46 °F (1959)
Cooling Degree Days 14    
Growing Degree Days 30 (Base 50)    
Moisture  
Dew Point 69 °F    
Average Humidity 81    
Maximum Humidity 97    
Minimum Humidity 54    
Precipitation  
Precipitation 0.10 in - - ()
Sea Level Pressure  
Sea Level Pressure 30.06 in    
Wind  
Wind Speed 4 mph (WNW)    
Max Wind Speed 14 mph    
Max Gust Speed 31 mph    
Visibility 10 miles    
Events Rain , Thunderstorm    
Averages and records for this station are not official NWS values.
T = Trace of Precipitation, MM = Missing Value Source: NWS Daily Summary

Daily Weather History Graph

Daily Weather History Graph

Search for Another Location

Airport:

Trip Planner

Search our weather history database for the weather conditions in past years. The results will help you decide how hot, cold, wet, or windy it might be!

Date:

Astronomy

Jun. 19, 2014 Rise Set
Actual Time 6:11 AM EDT 9:06 PM EDT
Civil Twilight 5:39 AM EDT 9:38 PM EDT
Nautical Twilight 4:58 AM EDT 10:19 PM EDT
Astronomical Twilight 4:11 AM EDT 11:06 PM EDT
Moon 1:12 AM EDT (6/19) 1:37 PM EDT (6/19)
Length of Visible Light 15h 59m
Length of Day
14h 55m
Waning Gibbous, 51% of the Moon is Illuminated
Jun 19
Waning Gibbous
Jun 19
Last Quarter
Jun 27
New
Jul 5
First Quarter
Jul 12
Full

Hourly Weather History & Observations

Time (EDT) Temp. Heat Index Dew Point Humidity Pressure Visibility Wind Dir Wind Speed Gust Speed Precip Events Conditions
12:53 AM 72.0 °F - 68.0 °F 87% 30.02 in 10.0 mi NNE 4.6 mph - N/A   Clear
1:53 AM 69.1 °F - 68.0 °F 96% 30.04 in 10.0 mi Calm Calm - N/A   Clear
2:53 AM 71.6 °F - 68.0 °F 88% 30.04 in 10.0 mi Calm Calm - N/A   Partly Cloudy
3:53 AM 75.9 °F - 64.9 °F 69% 30.02 in 10.0 mi West 5.8 mph - N/A   Partly Cloudy
4:53 AM 69.1 °F - 64.9 °F 87% 30.01 in 10.0 mi SSW 4.6 mph - N/A   Clear
5:53 AM 69.8 °F - 66.2 °F 88% 30.05 in 10.0 mi SW 3.5 mph - N/A   Clear
6:53 AM 69.1 °F - 66.9 °F 93% 30.07 in 10.0 mi NNE 4.6 mph - N/A   Partly Cloudy
7:53 AM 75.0 °F - 66.0 °F 73% 30.09 in 10.0 mi NNW 3.5 mph - N/A   Mostly Cloudy
8:53 AM 77.0 °F - 68.0 °F 74% 30.09 in 10.0 mi Calm Calm - N/A   Clear
9:53 AM 78.1 °F - 70.0 °F 76% 30.09 in 10.0 mi South 6.9 mph - N/A   Clear
10:53 AM 82.0 °F 86.3 °F 71.1 °F 69% 30.08 in 10.0 mi WSW 8.1 mph - N/A   Clear
11:53 AM 82.9 °F 87.5 °F 71.1 °F 67% 30.08 in 10.0 mi WSW 9.2 mph - N/A   Clear
12:53 PM 86.0 °F 92.2 °F 72.0 °F 63% 30.07 in 10.0 mi Variable 4.6 mph - N/A   Partly Cloudy
1:53 PM 88.0 °F 93.8 °F 71.1 °F 57% 30.06 in 10.0 mi West 9.2 mph - N/A   Scattered Clouds
2:53 PM 88.0 °F 93.8 °F 71.1 °F 57% 30.03 in 10.0 mi Variable 4.6 mph - N/A   Scattered Clouds
3:53 PM 90.0 °F 96.4 °F 71.1 °F 54% 30.02 in 10.0 mi West 9.2 mph - N/A   Partly Cloudy
4:53 PM 82.9 °F 85.8 °F 68.0 °F 60% 30.04 in 10.0 mi North - - N/A   Mostly Cloudy
5:06 PM 78.1 °F - 68.0 °F 71% 30.07 in 10.0 mi NNE 13.8 mph 31.1 mph N/A Thunderstorm Thunderstorm
5:53 PM 73.0 °F - 70.0 °F 90% 30.07 in 10.0 mi ENE 4.6 mph - 0.03 in Thunderstorm Thunderstorm
6:00 PM 72.0 °F - 70.0 °F 93% 30.08 in 10.0 mi SE 4.6 mph - N/A   Partly Cloudy
6:53 PM 73.9 °F - 69.1 °F 85% 30.09 in 10.0 mi NW 4.6 mph - N/A Thunderstorm Thunderstorm
7:17 PM 75.0 °F - 68.0 °F 79% 30.07 in 9.0 mi Calm Calm - 0.00 in Rain Light Rain
7:38 PM 72.0 °F - 69.1 °F 91% 30.05 in 2.5 mi ESE 4.6 mph - 0.05 in Rain Rain
7:46 PM 71.1 °F - 70.0 °F 96% 30.04 in 10.0 mi Calm Calm - 0.06 in Rain Light Rain
7:53 PM 71.1 °F - 70.0 °F 96% 30.03 in 10.0 mi West 4.6 mph - 0.07 in Rain Light Rain
8:53 PM 71.1 °F - 70.0 °F 96% 30.04 in 10.0 mi NNE 5.8 mph - 0.00 in   Clear
9:53 PM 70.0 °F - 69.1 °F 97% 30.06 in 8.0 mi Calm Calm - N/A   Clear
10:53 PM 70.0 °F - 69.1 °F 97% 30.09 in 10.0 mi Calm Calm - N/A   Clear
11:53 PM 70.0 °F - 69.1 °F 97% 30.08 in 7.0 mi Calm Calm - N/A   Clear